Airfield :







YOU CAN JOIN US ON...

 
LOGIN :

Register | Disclaimer

   EN    FR    IT 

 









Legend :    VFR   Marginal VFR   IFR   Intensive IFR   Very Intensive IFR
Visi :
Ceiling :
>= 8 km
>= 3000ft
5 to 8 km
1000 to 3000 ft
1500m to 5 km
500 to 1000 ft
800 to 1500m
200 to 500 ft
< 800m
< 200 ft
Symbols :   Thunderstorms  Fog  Heavy snow  Heavy precipitations  Wind > 20 kt






- Airport Elevation : 59 ft
- IATA code : SDQ


MDSD - Las Americas Int.

CURRENT METAR :
  • 261200Z 02004KT 9999 FEW016CB FEW018 26/24 Q1015 CB/SW

EXPIRED METARs :
  • 261100Z 02004KT 9999 FEW016CB FEW018 24/24 Q1014 CB/S/SW
  • 261000Z 01004KT 9999 FEW014CB FEW016 24/23 Q1014 CB/SW

TAF TAF MDSD
Valid from the 26 at 12:00 until the 27 at 12:00 UTC


261000Z 2612/2712 02004KT 9999 FEW016CB FEW018
PROB30 2617/2622 8000 -SHRA FEW016CB SCT018 BKN070
MDCS FIR / North America



MET'MAP, your aeronautical weather chart ! - Copyright ORBIFLY December 2007 - Disclaimer

ORBIFLY MET'MAP TEAM :

Programming & Development : Alexandra Zaïnal
Concept & original design : Baudouin d'Aumeries
Assistance for programming : Marc-Olivier Méhu
Technical & hardware support : Manuel Goepfert

Contact : metmap@orbifly.com




SOURCES & CREDITS :

   NOAA